AAL284 KLAX-KSAN

Flight info

Callsign AAL284
Flight time 0h 27m
Altitude 13000
Route LAXX1 MZB
Aircraft B738/M-SDE2E3FGHIRWXY/LB1

Departure

Time 2026-05-07 21:37
Airport Los Angeles International Airport (KLAX)

Arrival

Time 2026-05-07 22:05
Airport San Diego International Airport (KSAN)
Time Latitude Longitude Altitude Speed Heading
2026-05-07 21:25 33.94717 -118.40481 125 ft 0 kts 133°
2026-05-07 21:30 33.94723 -118.40489 121 ft 2 kts 126°
2026-05-07 21:30 33.94732 -118.40506 121 ft 2 kts 109°
2026-05-07 21:30 33.94733 -118.40525 122 ft 2 kts 62°
2026-05-07 21:31 33.94723 -118.40541 122 ft 2 kts 52°
2026-05-07 21:31 33.94714 -118.40558 122 ft 2 kts 51°
2026-05-07 21:31 33.94701 -118.40571 121 ft 2 kts 15°
2026-05-07 21:31 33.94693 -118.40573 120 ft 0 kts 355°
2026-05-07 21:33 33.94694 -118.40573 120 ft 1 kts 354°
2026-05-07 21:34 33.94737 -118.40579 122 ft 12 kts 353°
2026-05-07 21:34 33.94840 -118.40598 123 ft 11 kts
2026-05-07 21:34 33.94873 -118.40519 125 ft 11 kts 82°
2026-05-07 21:34 33.94884 -118.40414 123 ft 16 kts 82°
2026-05-07 21:35 33.94900 -118.40252 122 ft 22 kts 83°
2026-05-07 21:35 33.94919 -118.40072 121 ft 21 kts 82°
2026-05-07 21:35 33.94950 -118.39930 123 ft 15 kts 45°
2026-05-07 21:35 33.95039 -118.39938 123 ft 12 kts 309°
2026-05-07 21:36 33.95037 -118.40011 123 ft 8 kts 263°
2026-05-07 21:36 33.95023 -118.40152 125 ft 40 kts 263°
2026-05-07 21:36 33.94958 -118.40777 125 ft 110 kts 263°
2026-05-07 21:36 33.94839 -118.41929 128 ft 166 kts 263°
2026-05-07 21:37 33.94689 -118.43410 702 ft 177 kts 263°
2026-05-07 21:37 33.94540 -118.44837 1865 ft 172 kts 262°
2026-05-07 21:37 33.94260 -118.46336 2316 ft 202 kts 242°
2026-05-07 21:37 33.93142 -118.47472 2563 ft 229 kts 199°
2026-05-07 21:38 33.91512 -118.47473 2974 ft 247 kts 165°
2026-05-07 21:38 33.89970 -118.46361 3292 ft 270 kts 133°
2026-05-07 21:38 33.88711 -118.44610 3907 ft 281 kts 141°
2026-05-07 21:38 33.87003 -118.43564 4849 ft 276 kts 169°
2026-05-07 21:39 33.85104 -118.43546 5658 ft 274 kts 197°
2026-05-07 21:39 33.83419 -118.44561 6490 ft 273 kts 224°
2026-05-07 21:39 33.82290 -118.46393 7193 ft 277 kts 249°
2026-05-07 21:39 33.81784 -118.48641 7963 ft 280 kts 259°
2026-05-07 21:40 33.81422 -118.50971 8699 ft 287 kts 261°
2026-05-07 21:40 33.81067 -118.53366 9452 ft 294 kts 259°
2026-05-07 21:40 33.80269 -118.55648 10179 ft 302 kts 234°
2026-05-07 21:40 33.78715 -118.57387 10737 ft 313 kts 209°
2026-05-07 21:41 33.76669 -118.58334 11407 ft 318 kts 194°
2026-05-07 21:41 33.74505 -118.58985 12106 ft 324 kts 192°
2026-05-07 21:41 33.72283 -118.59532 12740 ft 326 kts 184°
2026-05-07 21:41 33.70036 -118.59341 12965 ft 326 kts 161°
2026-05-07 21:42 33.67968 -118.58093 13009 ft 344 kts 139°
2026-05-07 21:42 33.66361 -118.55895 13006 ft 361 kts 118°
2026-05-07 21:42 33.65409 -118.53046 13010 ft 377 kts 104°
2026-05-07 21:42 33.64740 -118.49974 13001 ft 393 kts 102°
2026-05-07 21:43 33.64099 -118.46705 13000 ft 400 kts 102°
2026-05-07 21:43 33.63485 -118.43481 12989 ft 402 kts 101°
2026-05-07 21:43 33.62870 -118.40215 12976 ft 401 kts 101°
2026-05-07 21:43 33.62262 -118.36963 12980 ft 400 kts 101°
2026-05-07 21:44 33.61656 -118.33709 12980 ft 399 kts 101°
2026-05-07 21:44 33.61051 -118.30453 12980 ft 400 kts 101°
2026-05-07 21:44 33.60448 -118.27198 12985 ft 400 kts 101°
2026-05-07 21:44 33.59844 -118.23940 12984 ft 400 kts 101°
2026-05-07 21:45 33.59241 -118.20681 12978 ft 400 kts 101°
2026-05-07 21:45 33.58637 -118.17420 12969 ft 401 kts 101°
2026-05-07 21:45 33.58024 -118.14161 12971 ft 401 kts 103°
2026-05-07 21:45 33.56988 -118.11058 12964 ft 404 kts 119°
2026-05-07 21:46 33.55271 -118.08390 13004 ft 406 kts 131°
2026-05-07 21:46 33.53386 -118.05873 12994 ft 406 kts 129°
2026-05-07 21:46 33.51548 -118.03303 12987 ft 406 kts 128°
2026-05-07 21:46 33.49745 -118.00703 12988 ft 406 kts 128°
2026-05-07 21:47 33.47958 -117.98083 12990 ft 405 kts 127°
2026-05-07 21:47 33.46184 -117.95460 12989 ft 405 kts 127°
2026-05-07 21:47 33.44415 -117.92837 12988 ft 405 kts 127°
2026-05-07 21:47 33.42642 -117.90207 12990 ft 405 kts 127°
2026-05-07 21:48 33.40874 -117.87589 12988 ft 405 kts 127°
2026-05-07 21:48 33.39103 -117.84969 12991 ft 405 kts 127°
2026-05-07 21:48 33.37329 -117.82348 12989 ft 405 kts 127°
2026-05-07 21:48 33.35559 -117.79735 12991 ft 405 kts 127°
2026-05-07 21:49 33.33785 -117.77119 12991 ft 403 kts 127°
2026-05-07 21:49 33.32060 -117.74580 12979 ft 388 kts 127°
2026-05-07 21:49 33.30360 -117.72078 12992 ft 389 kts 127°
2026-05-07 21:49 33.28654 -117.69567 12995 ft 388 kts 127°
2026-05-07 21:50 33.26957 -117.67072 12998 ft 387 kts 127°
2026-05-07 21:50 33.25264 -117.64583 12993 ft 386 kts 127°
2026-05-07 21:50 33.23599 -117.62141 12902 ft 372 kts 127°
2026-05-07 21:50 33.21963 -117.59741 12360 ft 370 kts 127°
2026-05-07 21:51 33.20372 -117.57410 11909 ft 355 kts 127°
2026-05-07 21:51 33.18861 -117.55196 11466 ft 342 kts 127°
2026-05-07 21:51 33.17381 -117.53028 11028 ft 332 kts 127°
2026-05-07 21:51 33.15925 -117.50897 10600 ft 322 kts 127°
2026-05-07 21:52 33.14569 -117.48913 10525 ft 304 kts 127°
2026-05-07 21:52 33.13252 -117.46987 10393 ft 294 kts 127°
2026-05-07 21:52 33.11976 -117.45121 10277 ft 288 kts 127°
2026-05-07 21:52 33.10678 -117.43221 10179 ft 294 kts 127°
2026-05-07 21:53 33.09423 -117.41387 10047 ft 284 kts 127°
2026-05-07 21:53 33.08199 -117.39604 9834 ft 274 kts 128°
2026-05-07 21:53 33.06896 -117.38006 9732 ft 265 kts 134°
2026-05-07 21:53 33.05520 -117.36480 9452 ft 281 kts 135°
2026-05-07 21:54 33.04038 -117.34862 9268 ft 318 kts 136°
2026-05-07 21:54 33.02354 -117.33031 9213 ft 329 kts 136°
2026-05-07 21:54 33.00687 -117.31225 9126 ft 317 kts 136°
2026-05-07 21:54 32.99093 -117.29496 8844 ft 305 kts 136°
2026-05-07 21:55 32.97545 -117.27814 8455 ft 298 kts 136°
2026-05-07 21:55 32.96036 -117.26170 8084 ft 291 kts 136°
2026-05-07 21:55 32.94555 -117.24558 7710 ft 286 kts 136°
2026-05-07 21:55 32.93103 -117.22977 7349 ft 280 kts 136°
2026-05-07 21:56 32.91670 -117.21419 7026 ft 278 kts 136°
2026-05-07 21:56 32.90244 -117.19868 6810 ft 278 kts 137°
2026-05-07 21:56 32.88810 -117.18308 6581 ft 280 kts 137°
2026-05-07 21:56 32.87374 -117.16746 6335 ft 280 kts 137°
2026-05-07 21:57 32.85931 -117.15177 6096 ft 280 kts 137°
2026-05-07 21:57 32.84507 -117.13629 6011 ft 276 kts 137°
2026-05-07 21:57 32.83094 -117.12093 5982 ft 274 kts 137°
2026-05-07 21:57 32.81697 -117.10576 5983 ft 271 kts 137°
2026-05-07 21:58 32.80316 -117.09078 5964 ft 264 kts 137°
2026-05-07 21:58 32.78998 -117.07649 5960 ft 250 kts 137°
2026-05-07 21:58 32.77887 -117.06150 5954 ft 236 kts 114°
2026-05-07 21:58 32.77320 -117.04347 5857 ft 240 kts 105°
2026-05-07 21:59 32.76853 -117.02385 5609 ft 250 kts 104°
2026-05-07 21:59 32.76386 -117.00390 5342 ft 251 kts 104°
2026-05-07 21:59 32.75910 -116.98403 5132 ft 249 kts 106°
2026-05-07 21:59 32.75102 -116.96606 4814 ft 248 kts 135°
2026-05-07 22:00 32.73689 -116.95516 4533 ft 241 kts 165°
2026-05-07 22:00 32.72068 -116.95367 4257 ft 231 kts 193°
2026-05-07 22:00 32.70593 -116.96016 4010 ft 225 kts 215°
2026-05-07 22:00 32.69450 -116.97269 3788 ft 226 kts 239°
2026-05-07 22:01 32.68842 -116.98994 3465 ft 228 kts 263°
2026-05-07 22:01 32.68903 -117.00842 3205 ft 223 kts 287°
2026-05-07 22:01 32.69367 -117.02571 2908 ft 218 kts 288°
2026-05-07 22:01 32.69793 -117.04284 2626 ft 214 kts 287°
2026-05-07 22:02 32.70195 -117.05933 2362 ft 200 kts 287°
2026-05-07 22:02 32.70566 -117.07456 2112 ft 186 kts 286°
2026-05-07 22:02 32.70915 -117.08896 1827 ft 177 kts 285°
2026-05-07 22:02 32.71245 -117.10256 1603 ft 166 kts 285°
2026-05-07 22:03 32.71550 -117.11517 1307 ft 151 kts 285°
2026-05-07 22:03 32.71837 -117.12688 1094 ft 145 kts 285°
2026-05-07 22:03 32.72116 -117.13840 868 ft 146 kts 285°
2026-05-07 22:03 32.72395 -117.14994 644 ft 144 kts 285°
2026-05-07 22:04 32.72672 -117.16120 452 ft 142 kts 286°
2026-05-07 22:04 32.72937 -117.17241 203 ft 143 kts 287°
2026-05-07 22:04 32.73210 -117.18357 25 ft 135 kts 286°
2026-05-07 22:04 32.73423 -117.19239 21 ft 81 kts 286°
2026-05-07 22:05 32.73500 -117.19557 23 ft 38 kts 286°
2026-05-07 22:05 32.73496 -117.19836 25 ft 13 kts 207°
2026-05-07 22:05 32.73463 -117.19822 23 ft 7 kts 121°
2026-05-07 22:05 32.73458 -117.19805 23 ft 0 kts 107°
2026-05-07 22:07 32.73457 -117.19802 23 ft 2 kts 106°
2026-05-07 22:07 32.73443 -117.19747 24 ft 11 kts 106°
2026-05-07 22:07 32.73394 -117.19702 21 ft 10 kts 186°
2026-05-07 22:07 32.73333 -117.19697 19 ft 6 kts 150°
2026-05-07 22:08 32.73316 -117.19680 19 ft 0 kts 139°